• MPC Preparation (Info)

  • MPEC 2003-P37 : 2003 PC11

    The following Minor Planet Electronic Circular may be linked-to from your own Web pages, but must not otherwise be redistributed electronically.

    A form allowing access to any MPEC is at the bottom of this page.


    Read MPEC 2003-P36 Read MPEC 2003-P38


    M.P.E.C. 2003-P37                                Issued 2003 Aug. 8, 17:52 UT
    
         The Minor Planet Electronic Circulars contain information on unusual
             minor planets and routine data on comets.  They are published
       on behalf of Commission 20 of the International Astronomical Union by the
              Minor Planet Center, Smithsonian Astrophysical Observatory,
                              Cambridge, MA 02138, U.S.A.
    
                 Prepared using the Tamkin Foundation Computer Network
    
                                  MPC@CFA.HARVARD.EDU
              URL http://cfa-www.harvard.edu/iau/mpc.html  ISSN 1523-6714
    
                                       2003 PC11
    
    Observations:
         K03P11C* C2003 08 05.39989 02 49 09.47 +21 47 56.6          20.1        704
         K03P11C  C2003 08 05.41095 02 49 11.61 +21 48 29.3          20.3        704
         K03P11C  C2003 08 05.42171 02 49 13.27 +21 49 02.5          19.7        704
         K03P11C  C2003 08 05.43255 02 49 15.09 +21 49 34.0          19.6        704
         K03P11C  C2003 08 06.04655 02 51 00.71 +22 19 43.1                      246
         K03P11C  C2003 08 06.04757 02 51 00.93 +22 19 46.4                      246
         K03P11C  C2003 08 06.04817 02 51 00.95 +22 19 48.4                      246
         K03P11C  C2003 08 06.04878 02 51 01.05 +22 19 49.3                      246
         K03P11C  C2003 08 06.04987 02 51 01.26 +22 19 52.3                      246
         K03P11C  C2003 08 06.05233 02 51 01.72 +22 20 00.1                      246
         K03P11C  C2003 08 06.05582 02 51 02.35 +22 20 10.5          19.8        026
         K03P11C  C2003 08 06.06137 02 51 03.32 +22 20 26.9          19.6        026
         K03P11C  C2003 08 06.07110 02 51 04.96 +22 20 55.4          19.8        026
         K03P11C  C2003 08 06.07417 02 51 05.42 +22 21 05.2          19.1 R      118
         K03P11C  C2003 08 06.08108 02 51 06.62 +22 21 25.5                      118
         K03P11C  C2003 08 06.09000 02 51 08.27 +22 21 52.6          18.5 R      620
         K03P11C  C2003 08 06.10744 02 51 11.23 +22 22 44.5          18.7 R      620
         K03P11C  C2003 08 06.12472 02 51 14.17 +22 23 35.6          18.6 R      620
         K03P11C  C2003 08 07.07417 02 53 57.81 +23 10 09.0                      557
         K03P11C  C2003 08 07.07492 02 53 58.04 +23 10 09.5          18.5 R      J95
         K03P11C  C2003 08 07.07534 02 53 58.00 +23 10 12.4                      557
         K03P11C  C2003 08 07.07630 02 53 58.20 +23 10 15.1                      246
         K03P11C  C2003 08 07.07650 02 53 58.22 +23 10 15.8          18.9 V      557
         K03P11C  C2003 08 07.07706 02 53 58.33 +23 10 17.5                      246
         K03P11C  C2003 08 07.07762 02 53 58.41 +23 10 19.8                      246
         K03P11C  C2003 08 07.07826 02 53 58.52 +23 10 21.3                      246
         K03P11C  C2003 08 07.07932 02 53 58.70 +23 10 24.2                      246
         K03P11C  C2003 08 07.08000 02 53 58.78 +23 10 25.9                      246
         K03P11C  C2003 08 07.08218 02 53 59.26 +23 10 32.6          18.1 R      J95
         K03P11C  C2003 08 07.08926 02 54 00.41 +23 10 51.7                      J95
         K03P11C  C2003 08 07.41710 02 54 57.03 +23 26 58.2          18.6 R      H36
         K03P11C  C2003 08 07.42718 02 54 58.69 +23 27 29.0          19.0 R      H36
         K03P11C  C2003 08 07.75870 02 55 55.70 +23 43 55.5          18.5 R      474
         K03P11C  C2003 08 07.75994 02 55 55.92 +23 43 59.1          18.6 R      474
         K03P11C  C2003 08 07.76103 02 55 56.10 +23 44 02.2          18.6 R      474
         K03P11C  C2003 08 07.76207 02 55 56.25 +23 44 05.3          18.6 R      474
         K03P11C  C2003 08 07.76416 02 55 56.60 +23 44 11.7          18.9 R      474
         K03P11C  C2003 08 08.02150 02 56 41.53 +23 56 28.3                      118
         K03P11C  C2003 08 08.02811 02 56 42.71 +23 56 47.9          18.6 R      118
         K03P11C  C2003 08 08.06186 02 56 48.55 +23 58 27.1                      557
         K03P11C  C2003 08 08.06409 02 56 48.91 +23 58 33.5                      557
         K03P11C  C2003 08 08.06630 02 56 49.27 +23 58 39.6                      557
         K03P11C  C2003 08 08.06851 02 56 49.67 +23 58 46.1                      557
    
    Observer details:
    026 Berne-Zimmerwald.  Observer R. Musci.  Measurer M. Ploner.  1.0-m f/4
        reflector + CCD.
    118 Modra.  Observer J. Toth.  0.6-m f/5.5 reflector + CCD.
    246 Klet Observatory-KLENOT.  Observer M. Tichy.  1.06-m KLENOT Telescope
        + CCD.
    474 Mount John Observatory, Lake Tekapo.  Observers A. C. Gilmore,
        P. M. Kilmartin.  1.0-m f/7.7 reflector + CCD.
    557 Ondrejov.  Observers L. Sarounova, M. Wolf.  0.65-m f/3.6 reflector + CCD.
    620 Observatorio Astronomico de Mallorca.  Observers S. Sanchez, R. Stoss,
        J. Nomen.  0.30-m f/9 Schmidt-Cassegrain + CCD.
    704 Lincoln Laboratory ETS, New Mexico.  Observers M. Blythe, F. Shelly,
        M. Bezpalko, R. Huber, L. Manguso, S. Adams, D. Torres, T. Brothers,
        S. Partridge.  Measurers J. Stuart, R. Sayer, J. Evans, P. Hopman.  1.0-m
        f/2.15 reflector + CCD.
    H36 Sandlot Observatory, Scranton.  Observer G. Hug.
    J95 Great Shefford.  Observer P. Birtwhistle.  0.30-m f/6.3 Schmidt-Cassegrain
        + CCD.
    
    Orbital elements:
    2003 PC11
    Epoch 2003 July 20.0 TT = JDT 2452840.5                 MPC
    M 356.45842              (2000.0)            P               Q
    n   0.19711809     Peri.    9.79329     +0.98762279     +0.10556174
    a   2.9240518      Node   342.79945     -0.15677557     +0.68682075
    e   0.5812898      Incl.   23.09737     +0.00475794     +0.71912027
    P   5.00           H   17.1           G   0.15
    From 42 observations 2003 Aug. 5-8.
    
    Ephemeris:
    2003 PC11                a,e,i = 2.92, 0.58, 23                  q = 1.2243
    Date    TT    R. A. (2000) Decl.     Delta      r     Elong.  Phase     V
    2003 08 09    02 59.51   +24 44.2    0.752    1.225    86.5    55.7    18.9
    2003 08 19    03 28.77   +32 36.8    0.745    1.233    87.7    55.1    18.9
    2003 08 29    03 58.55   +39 51.3    0.749    1.252    89.5    53.8    18.9
    2003 09 08    04 28.29   +46 16.5    0.759    1.281    91.9    51.8    19.0
    2003 09 18    04 57.06   +51 49.5    0.773    1.320    95.0    49.3    19.0
    2003 09 28    05 23.31   +56 33.8    0.789    1.366    98.7    46.5    19.0
    2003 10 08    05 44.89   +60 35.4    0.806    1.419   103.1    43.3    19.1
    2003 10 18    05 59.31   +64 00.7    0.824    1.478   108.2    39.8    19.1
    2003 10 28    06 03.53   +66 51.3    0.844    1.541   113.7    36.2    19.1
    2003 11 07    05 54.95   +68 59.8    0.867    1.607   119.5    32.5    19.2
    2003 11 17    05 33.5    +70 10.0    0.897    1.675   125.2    28.8    19.2
    2003 11 27    05 03.9    +70 04.2    0.936    1.745   130.2    25.6    19.3
    2003 12 07    04 35.54   +68 38.4    0.989    1.816   133.8    23.0    19.5
    2003 12 17    04 15.28   +66 10.4    1.057    1.887   135.3    21.5    19.6
    2003 12 27    04 04.82   +63 07.3    1.142    1.959   134.3    21.1    19.9
    2004 01 06    04 02.72   +59 54.0    1.245    2.031   131.1    21.4    20.2
    2004 01 16    04 06.72   +56 47.1    1.365    2.102   126.3    22.2    20.5
    2004 01 26    04 14.99   +53 55.4    1.502    2.173   120.5    23.0    20.8
    2004 02 05    04 26.22   +51 22.2    1.652    2.244   114.2    23.6    21.1
    2004 02 15    04 39.46   +49 07.5    1.814    2.313   107.6    24.0    21.3
    2004 02 25    04 54.09   +47 09.2    1.985    2.381   101.0    24.1    21.6
    2004 03 06    05 09.67   +45 24.8    2.164    2.449    94.4    23.8    21.8
    
    Kyle E. Smalley              (C) Copyright 2003 MPC           M.P.E.C. 2003-P37
    

    Read MPEC 2003-P36 Read MPEC 2003-P38


    MPEC number:

    Enter an MPEC number in one of the following forms:

    • 1997-B01 (the full form)
    • J97B01 (the packed version of the full form)
    • B01 (the abbreviated form)